sat.trackr.live / text

‹ back to catalog

RISAT-2BR1

NORAD 44857 · 2019-089F

PAYLOAD ACTIVE UNKNOWN

§ Identity

Operator
Country
IND
Launch date
2019-12-11
Launch site
SRILR
Launch vehicle
Mass (kg)
RCS (m²)

External: N2YO · Heavens-Above · Gunter

§ Orbital elements

Epoch: 2026-09-20T04:40:07.396320Z

Period
95.94 min
Inclination
36.9603°
Eccentricity
0.0013232
Mean motion
15.00881374 rev/d
Perigee alt
555.0 km
Apogee alt
573.4 km
Semi-major
6,942.3 km
B*
1.2458e-4
RAAN
268.1469°
Arg perigee
236.4378°
Mean anomaly
123.5101°
Rev number
37,148

§ Raw data

RISAT-2BR11 44857U 19089F   26263.19453005  .00001538  00000+0  12458-3 0  99902 44857  36.9603 268.1469 0013232 236.4378 123.5101 15.00881374371480

JSON: /api/v1/satellites/44857 · /tle

For live sub-satellite position, see the globe view (requires WebGL).

§ Visibility from observer

Set your observer location to see the next 7 days of passes ≥ 10°. The values pass through the URL so the page stays shareable.

No JS? Fill the form by hand. The geolocation button needs JavaScript.